[[{"header":{"parameterUnit":"m.s-1","parameterCategory":1,"la1":30.2991,"la2":30.254,"lo1":-89.0895,"lo2":-89.0444,"dy":0.0017,"dx":0.0017,"nx":28,"ny":28,"refTime":"2025-05-26T09:00:00:Z","depth":0,"parameterNumber":2,"parameterNumberName":"U-component_of_WINDS"},"data":[0,0,0,0,0,0,0,0,0,0,0,0,0,0,0,0,0,0,0,0,0,0,0,0,0,0,0,0,0,0,0,0,0,0,0,0,0,0,0,0,0,0,0,0,0,0,0,0,0,0,0,0,0,0,0,0,0,0,0.5841,0.5841,0,0.585,0.585,0.585,0.5807,0.5806,0.5804,0.5803,0.5816,0.5818,0.5819,0,0,0,0,0,0,0,0,0,0,0,0,0,0.5788,0.5789,0.5841,0.5841,0.5841,0.585,0.585,0.585,0.5807,0.5805,0.5804,0.5802,0.5816,0.5817,0.5819,0,0,0,0,0,0,0,0,0,0,0,0,0,0.5806,0.579,0.5841,0.5821,0.5819,0.585,0.585,0.5851,0.5807,0.5805,0.5804,0.5802,0.5815,0.5817,0.582,0.5872,0,0,0.5827,0.5828,0,0,0,0,0,0,0,0,0.5805,0.5808,0.5823,0.5822,0.582,0.5825,0.5836,0.5858,0.5808,0.5812,0.5803,0.5801,0.5821,0.5823,0.5829,0.5873,0.5873,0.5827,0.5828,0.5829,0.583,0,0,0,0,0,0,0,0.5804,0.5807,0.5845,0.5824,0.5822,0.5812,0.5812,0.584,0.5827,0.5811,0.5808,0.581,0.582,0.5827,0.5829,0.5873,0.5827,0.5829,0.583,0.5831,0.596,0.5961,0,0,0,0,0,0,0.5805,0.5806,0.5844,0.5845,0.5807,0.5814,0.5815,0.5826,0.5827,0.5825,0.5811,0.5808,0.5824,0.5826,0.5829,0.5889,0.5829,0.5831,0.5833,0.5958,0.596,0.5962,0,0,0,0,0,0,0.5804,0.5809,0.5844,0.5825,0.5829,0.5817,0.583,0.5827,0.5834,0.5827,0.5824,0.5821,0.5822,0.5826,0.5861,0.5889,0.5832,0.5834,0.5955,0.5958,0.5961,0.6012,0,0,0,0,0,0,0.5802,0.5808,0.5828,0.5826,0.583,0.5876,0.5832,0.5828,0.5837,0.5833,0.5835,0.5833,0.5821,0.5858,0.5863,0.5891,0.5836,0.5953,0.5957,0.596,0.6007,0.6016,0.6023,0,0,0,0,0,0.5801,0.5843,0.5829,0.5834,0.5854,0.5877,0.588,0.5864,0.584,0.5859,0.5855,0.5833,0.5885,0.5862,0.5868,0.5897,0.5951,0.5955,0.596,0.6004,0.6014,0.6023,0,0,0,0,0,0,0.5851,0.5842,0.5827,0.5869,0.5874,0.587,0.5894,0.5876,0.5888,0.5883,0.5864,0.5865,0.5903,0.5904,0.5878,0.5947,0.5914,0.592,0.5945,0.5955,0.5963,0.5962,0.5838,0,0,0,0,0,0.5866,0.5885,0.5877,0.5916,0.5919,0.5906,0.5916,0.5903,0.5907,0.591,0.5907,0.5914,0.5931,0.5943,0.5959,0.6007,0.6007,0.603,0.6038,0.6045,0.605,0.6074,0.6084,0.5977,0.5977,0.5977,0,0,0.5899,0.5897,0.5911,0.5925,0.5928,0.5948,0.5908,0.5932,0.5947,0.5914,0.5946,0.5945,0.595,0.5992,0.601,0.5993,0.6079,0.605,0.6056,0.6058,0.608,0.609,0.6099,0.598,0.598,0.5979,0,0,0.597,0.597,0.6001,0.6004,0.6007,0.5998,0.6005,0.6004,0.6001,0.6033,0.6008,0.6026,0.6057,0.6061,0.6068,0.6138,0.6119,0.6144,0.6186,0.621,0.6218,0.6226,0.625,0.6259,0.615,0.615,0.615,0,0.6011,0.604,0.602,0.6045,0.6052,0.6021,0.6052,0.6056,0.6065,0.6071,0.6052,0.6089,0.6091,0.6132,0.6149,0.6155,0.6163,0.6144,0.6219,0.6226,0.6232,0.6255,0.6265,0.6153,0.6153,0.6152,0.6152,0,0.6089,0.611,0.6135,0.6142,0.6152,0.618,0.6165,0.6178,0.6164,0.6157,0.619,0.619,0.6205,0.6214,0.6202,0.6254,0.6243,0.6222,0.6188,0.6246,0.6267,0.6276,0.6157,0.6156,0.6155,0.6154,0,0,0.6192,0.6187,0.6196,0.6199,0.6199,0.6215,0.6242,0.6254,0.6265,0.6272,0.6294,0.632,0.63,0.6307,0.6294,0.6315,0.637,0.6291,0.6291,0.6305,0.6427,0.6442,0.6453,0.6357,0.6359,0.636,0.6426,0,0.626,0.6304,0.6287,0.6332,0.6351,0.6321,0.6344,0.6347,0.6341,0.6356,0.635,0.6369,0.6341,0.6345,0.6364,0.6359,0.6394,0.6354,0.6377,0.6378,0.6376,0.6464,0.6481,0.6543,0.6434,0.6435,0.6436,0,0.6346,0.6354,0.6401,0.6397,0.6404,0.6425,0.6434,0.6449,0.6452,0.6446,0.6454,0.6436,0.6462,0.6429,0.6464,0.6438,0.6446,0.6445,0.6447,0.6448,0.6411,0.6467,0.6562,0.6572,0.645,0.6449,0.6448,0,0.6415,0.6438,0.6469,0.6472,0.6468,0.6483,0.6482,0.6483,0.6492,0.6501,0.6506,0.6518,0.6525,0.6536,0.6522,0.6499,0.656,0.6525,0.6556,0.6556,0.657,0.6569,0.6667,0.6576,0.6576,0.6576,0.6576,0,0.6492,0.6522,0.6499,0.6518,0.655,0.653,0.6563,0.6559,0.656,0.6578,0.6554,0.6571,0.6552,0.6568,0.6558,0.6588,0.6592,0.6588,0.6585,0.659,0.6591,0.6595,0.659,0.6578,0.6578,0.6577,0.6577,0,0.6575,0.6561,0.6592,0.6585,0.6584,0.6608,0.6603,0.662,0.6612,0.6635,0.6639,0.6627,0.6644,0.6631,0.6649,0.6642,0.6682,0.6674,0.6681,0.6678,0.6709,0.6706,0.6814,0.6826,0.6728,0.6729,0.673,0,0.6625,0.6647,0.6642,0.6651,0.6651,0.6667,0.6675,0.6656,0.6666,0.667,0.6686,0.6701,0.6712,0.6741,0.6735,0.6748,0.6739,0.6775,0.6741,0.6744,0.6738,0.6737,0.6739,0.6782,0.6784,0.6784,0.6785,0,0.6715,0.6707,0.6718,0.6727,0.6737,0.6744,0.6748,0.6758,0.6738,0.675,0.6767,0.6775,0.6792,0.6807,0.6817,0.6817,0.6798,0.6796,0.6804,0.6809,0.6812,0.681,0.6699,0.6794,0.6793,0.6792,0.6792,0.6791,0.6782,0.68,0.6798,0.6812,0.6813,0.6818,0.6833,0.6826,0.6839,0.685,0.6839,0.6858,0.686,0.6872,0.6874,0.6889,0.6875,0.6886,0.6889,0.6892,0.6896,0.681,0.6892,0.6891,0.6891,0.6891,0.6891,0,0.687,0.6867,0.688,0.6886,0.6897,0.6876,0.688,0.6891,0.6908,0.691,0.6921,0.6939,0.6954,0.6947,0.696,0.6973,0.6965,0.6977,0.6976,0.6976,0.6909,0.69,0.6984,0.6984,0.6984,0.6984,0.6984,0.6984,0.6917,0.6945,0.6936,0.6965,0.6962,0.698,0.6983,0.6988,0.6989,0.701,0.7021,0.7017,0.7016,0.7027,0.704,0.7037,0.7043,0.7058,0.7053,0.699,0.6981,0.6972,0.6964,0.706,0.706,0.7119,0.712,0.712]},{"header":{"parameterUnit":"m.s-1","parameterCategory":1,"la1":30.2991,"la2":30.254,"lo1":-89.0895,"lo2":-89.0444,"dy":0.0017,"dx":0.0017,"nx":28,"ny":28,"refTime":"2025-05-26T09:00:00:Z","depth":0,"parameterNumber":3,"parameterNumberName":"V-component_of_WINDS"},"data":[0,0,0,0,0,0,0,0,0,0,0,0,0,0,0,0,0,0,0,0,0,0,0,0,0,0,0,0,0,0,0,0,0,0,0,0,0,0,0,0,0,0,0,0,0,0,0,0,0,0,0,0,0,0,0,0,0,0,6.5872,6.5873,0,6.5887,6.5888,6.5888,6.5844,6.5843,6.5841,6.584,6.5853,6.5855,6.5856,0,0,0,0,0,0,0,0,0,0,0,0,0,6.5804,6.5805,6.5872,6.5873,6.5873,6.5887,6.5888,6.5888,6.5844,6.5843,6.5841,6.5839,6.5852,6.5854,6.5856,0,0,0,0,0,0,0,0,0,0,0,0,0,6.5828,6.5806,6.5872,6.5853,6.5851,6.5887,6.5888,6.5888,6.5845,6.5843,6.5841,6.5839,6.5852,6.5854,6.5857,6.5911,0,0,6.5864,6.5865,0,0,0,0,0,0,0,0,6.5826,6.583,6.5856,6.5854,6.5853,6.5862,6.5868,6.5896,6.5845,6.5847,6.584,6.5838,6.5857,6.5859,6.5866,6.5912,6.5912,6.5864,6.5865,6.5866,6.5867,0,0,0,0,0,0,0,6.5825,6.5829,6.5878,6.5856,6.5854,6.5843,6.5844,6.5873,6.5863,6.5847,6.5844,6.5846,6.5856,6.5864,6.5866,6.5913,6.5864,6.5866,6.5868,6.5868,6.6003,6.6005,0,0,0,0,0,0,6.5826,6.5828,6.5878,6.5879,6.5834,6.5846,6.5847,6.5861,6.5863,6.5861,6.5848,6.5844,6.5861,6.5864,6.5867,6.593,6.5866,6.5869,6.587,6.6001,6.6004,6.6006,0,0,0,0,0,0,6.5825,6.5831,6.5877,6.5853,6.5858,6.5849,6.5865,6.5862,6.587,6.5864,6.5861,6.5858,6.586,6.5863,6.59,6.5929,6.587,6.5872,6.5998,6.6002,6.6005,6.6057,0,0,0,0,0,0,6.5823,6.5831,6.5852,6.5853,6.5859,6.5911,6.5867,6.5864,6.5875,6.587,6.5872,6.5871,6.5858,6.5897,6.5903,6.5932,6.5874,6.5996,6.6,6.6004,6.6053,6.6062,6.6069,0,0,0,0,0,6.5821,6.5865,6.5853,6.5859,6.5885,6.5913,6.5916,6.5901,6.5877,6.5898,6.5894,6.5871,6.5926,6.5901,6.5907,6.5937,6.5994,6.5999,6.6003,6.6049,6.606,6.6069,0,0,0,0,0,0,6.5866,6.5865,6.5851,6.5898,6.5906,6.5906,6.5931,6.5914,6.5928,6.5923,6.5903,6.5904,6.5945,6.5945,6.5918,6.599,6.5956,6.5962,6.5988,6.5998,6.6007,6.6005,6.5876,0,0,0,0,0,6.5882,6.5905,6.5903,6.5945,6.595,6.594,6.5952,6.594,6.5947,6.5949,6.5948,6.5955,6.5974,6.5987,6.6004,6.6053,6.6052,6.6077,6.6085,6.6092,6.6097,6.6122,6.6133,6.6022,6.6022,6.6022,0,0,6.5914,6.5917,6.5932,6.5954,6.5959,6.5982,6.5943,6.597,6.5987,6.5953,6.5988,6.5988,6.5994,6.6038,6.6057,6.6039,6.6128,6.6098,6.6104,6.6105,6.6128,6.6139,6.6148,6.6025,6.6024,6.6024,0,0,6.5984,6.599,6.6024,6.603,6.6038,6.6032,6.604,6.6043,6.6041,6.6076,6.6052,6.6072,6.6105,6.611,6.6117,6.6191,6.617,6.6198,6.624,6.6265,6.6274,6.6281,6.6306,6.6315,6.6203,6.6203,6.6203,0,6.6023,6.6058,6.6044,6.6073,6.6082,6.6055,6.6089,6.6095,6.6108,6.6115,6.6096,6.6137,6.6139,6.6183,6.6201,6.6209,6.6217,6.6196,6.6274,6.6281,6.6288,6.6311,6.6321,6.6206,6.6206,6.6205,6.6205,0,6.6105,6.613,6.6157,6.6171,6.6184,6.6215,6.6205,6.622,6.6207,6.6203,6.6239,6.6241,6.6258,6.6268,6.6256,6.631,6.6299,6.6277,6.6241,6.6302,6.6323,6.6332,6.6211,6.6209,6.6209,6.6208,0,0,6.6201,6.6209,6.6218,6.6224,6.6232,6.625,6.6281,6.6298,6.631,6.6321,6.6345,6.6374,6.6354,6.6362,6.6351,6.6373,6.6429,6.6348,6.6348,6.6362,6.6488,6.6502,6.6513,6.6417,6.6419,6.642,6.6486,0,6.6269,6.6321,6.631,6.6361,6.6383,6.6358,6.6384,6.6391,6.6388,6.6406,6.6403,6.6423,6.6396,6.6401,6.6422,6.6418,6.6454,6.6414,6.6437,6.6438,6.6434,6.6524,6.654,6.6602,6.6495,6.6496,6.6497,0,6.6355,6.6369,6.6423,6.6427,6.6435,6.6459,6.6474,6.6492,6.6499,6.6496,6.6506,6.649,6.6519,6.6485,6.6524,6.6497,6.6506,6.6506,6.6508,6.6508,6.6469,6.6524,6.6622,6.6631,6.6511,6.651,6.6509,0,6.6418,6.6451,6.6487,6.6493,6.6499,6.6516,6.6519,6.6525,6.6536,6.6549,6.6556,6.6572,6.658,6.6593,6.6582,6.6559,6.6622,6.6588,6.6618,6.6619,6.663,6.6629,6.6729,6.6641,6.6641,6.664,6.664,0,6.6493,6.6526,6.6515,6.6537,6.6573,6.656,6.6596,6.6596,6.6602,6.6622,6.6602,6.6622,6.6607,6.6626,6.6617,6.665,6.6655,6.6651,6.6648,6.6652,6.6652,6.6655,6.665,6.6643,6.6642,6.6642,6.6641,0,6.6568,6.6562,6.66,6.6603,6.6605,6.6631,6.6633,6.6653,6.665,6.6676,6.6682,6.6675,6.6696,6.6687,6.6709,6.6703,6.6745,6.6737,6.6742,6.6739,6.6769,6.6766,6.6873,6.6885,6.6791,6.6792,6.6793,0,6.6615,6.664,6.6647,6.666,6.6665,6.6686,6.6697,6.6686,6.6698,6.6709,6.6728,6.6747,6.6761,6.6796,6.6792,6.6809,6.68,6.6836,6.6802,6.6805,6.6798,6.6795,6.6797,6.6842,6.6843,6.6844,6.6845,0,6.6699,6.6695,6.6713,6.673,6.6745,6.6758,6.6768,6.678,6.6769,6.6784,6.6805,6.6817,6.684,6.6858,6.6873,6.6875,6.6858,6.6856,6.6864,6.6866,6.6867,6.6865,6.6758,6.6853,6.6852,6.6852,6.6851,6.6851,6.676,6.6781,6.6789,6.6809,6.6817,6.6827,6.6846,6.6846,6.6863,6.6881,6.6874,6.6898,6.6905,6.6923,6.6928,6.6946,6.6931,6.6943,6.6945,6.6948,6.6951,6.6867,6.6949,6.6949,6.6948,6.6948,6.6948,0,6.6841,6.6845,6.6865,6.6881,6.6897,6.6881,6.6893,6.6907,6.6929,6.6937,6.6952,6.6977,6.6995,6.6994,6.7011,6.7026,6.7018,6.703,6.7028,6.7028,6.6964,6.6955,6.7036,6.7036,6.7036,6.7036,6.7036,6.7036,6.6885,6.6919,6.6916,6.6953,6.6957,6.6981,6.6989,6.6999,6.7005,6.7034,6.7049,6.7049,6.7054,6.7071,6.7087,6.7086,6.7092,6.7107,6.7103,6.7042,6.7033,6.7025,6.7016,6.7109,6.7109,6.7165,6.7166,6.7166]}]]